Location: Les Thiberg�res
(47.8554°N, 1.0978°W)
Time: 13:20:18
(UTC+00:00)

STARLINK-1171 - Visible Passes

Search period start: 10 July 2020 00:00
Search period end: 20 July 2020 00:00
Orbit: 549 x 550 km, 53.0° (Epoch: 09 July)

Date Brightness Start Highest point End Pass type
(mag) Time Alt. Az. Time Alt. Az. Time Alt. Az.
10 Jul 5.0 01:03:55 10° WNW 01:07:52 39° N 01:11:47 10° ENE visible
10 Jul 4.1 02:43:45 10° WNW 02:47:53 66° NNE 02:52:01 10° ESE visible
10 Jul 3.8 21:38:43 10° SW 21:42:43 49° SE 21:46:44 10° ENE visible
10 Jul 4.4 23:18:15 10° W 23:22:19 53° NNW 23:26:24 10° ENE visible
11 Jul 5.0 00:58:29 10° WNW 01:02:25 40° N 01:06:22 10° ENE visible
11 Jul 3.8 02:38:14 10° WNW 02:42:24 78° NNE 02:46:32 10° ESE visible
11 Jul 3.6 21:33:00 10° SW 21:37:05 62° SSE 21:41:12 10° ENE visible
11 Jul 4.6 23:12:46 10° W 23:16:48 47° NNW 23:20:50 10° ENE visible
12 Jul 4.9 00:52:57 10° WNW 00:56:55 42° N 01:00:53 10° E visible
12 Jul 3.6 02:32:38 10° WNW 02:36:48 88° SSW 02:40:57 10° ESE visible
12 Jul 3.5 21:27:15 10° SW 21:31:24 78° SSE 21:35:33 10° ENE visible
12 Jul 4.8 23:07:14 10° W 23:11:13 44° N 23:15:13 10° ENE visible
13 Jul 4.8 00:47:20 10° WNW 00:51:20 45° N 00:55:20 10° E visible
13 Jul 3.5 02:26:58 10° WNW 02:31:07 72° SSW 02:35:14 10° SE visible
13 Jul 3.6 21:21:31 10° WSW 21:25:39 87° NW 21:29:50 10° ENE visible
13 Jul 4.9 23:01:36 10° WNW 23:05:33 41° N 23:09:31 10° ENE visible
14 Jul 4.6 00:41:37 10° WNW 00:45:40 49° NNE 00:49:43 10° E visible
14 Jul 3.6 02:21:15 10° WNW 02:25:20 57° SW 02:29:24 10° SE visible
14 Jul 3.9 21:15:44 10° WSW 21:19:52 74° NNW 21:24:02 10° ENE visible
14 Jul 5.0 22:55:54 10° WNW 22:59:50 40° N 23:03:46 10° ENE visible
15 Jul 4.3 00:35:49 10° WNW 00:39:54 55° NNE 00:43:59 10° E visible
15 Jul 3.8 02:15:29 10° WNW 02:19:27 45° SW 02:23:24 10° SE visible
15 Jul 4.2 21:09:54 10° WSW 21:14:00 63° NNW 21:18:08 10° ENE visible
15 Jul 5.0 22:50:07 10° WNW 22:54:02 39° N 22:57:58 10° ENE visible
16 Jul 4.0 00:29:56 10° WNW 00:34:03 63° NNE 00:38:11 10° ESE visible
16 Jul 4.1 02:09:40 10° WNW 02:13:29 35° SW 02:16:12 17° SSE visible
16 Jul 4.4 21:04:01 10° W 21:08:06 55° NNW 21:12:12 10° ENE visible
16 Jul 5.0 22:44:14 10° WNW 22:48:10 40° N 22:52:06 10° ENE visible
17 Jul 3.7 00:23:58 10° WNW 00:28:07 74° NNE 00:30:55 20° ESE visible
17 Jul 4.8 02:03:50 10° WNW 02:06:23 25° WSW 02:06:23 25° WSW visible
17 Jul 4.6 20:58:05 10° W 21:02:08 49° NNW 21:06:10 10° ENE visible
17 Jul 4.9 22:38:16 10° WNW 22:42:13 41° N 22:46:10 10° ENE visible
18 Jul 3.5 00:17:55 10° WNW 00:22:06 87° NNE 00:23:18 45° ESE visible
18 Jul 5.7 01:58:01 10° W 01:58:49 14° W 01:58:49 14° W visible
18 Jul 4.8 20:52:06 10° W 20:56:05 45° N 21:00:06 10° ENE visible
18 Jul 4.7 22:32:12 10° WNW 22:36:11 44° N 22:40:10 10° E visible
19 Jul 3.4 00:11:49 10° WNW 00:15:58 78° SSW 00:16:13 73° SSE visible
19 Jul 4.9 20:46:02 10° W 20:49:59 42° N 20:53:57 10° ENE visible
19 Jul 4.5 22:26:03 10° WNW 22:30:04 47° NNE 22:33:49 12° E visible
